Theta_e
304 304 304 304 303 303 303 303 303 303 303 304 304 305 305 306 307 307 307 307 307 306 306 306 308 308 308 312 314 314 311 313 315 317 322 318 318 323 328 327 328 329 329 330 330 331 331
303 303 303 303 303 303 304 304 304 303 304 303 304 305 306 306 307 307 307 306 304 304 303 306 308 307 310 311 311 311 312 313 314 316 320 319 320 322 326 328 328 329 329 328 328 329 331
304 304 304 304 304 304 304 304 304 304 304 304 304 305 305 306 306 306 306 306 304 303 303 306 308 309 311 310 308 308 309 310 311 313 317 318 320 322 324 326 327 328 329 329 329 329 329
304 304 304 304 304 303 303 304 304 304 304 304 305 305 304 306 306 306 305 303 303 303 303 307 308 309 312 307 306 306 307 308 310 312 314 316 318 321 322 324 326 327 329 330 329 329 329
303 304 304 304 304 303 303 304 304 304 304 305 304 304 305 305 305 304 302 301 303 305 306 309 310 310 310 308 309 308 308 308 310 312 313 314 316 318 320 323 326 328 330 330 330 329 329
302 304 304 304 304 303 303 304 304 304 304 304 305 304 304 304 304 303 303 303 306 306 310 311 311 312 311 309 307 310 311 309 311 314 315 316 317 318 318 322 325 326 328 329 329 328 329
303 303 304 304 304 303 303 303 304 304 304 305 305 304 304 304 303 303 304 308 310 313 312 312 310 311 309 308 307 307 307 308 313 314 316 317 318 318 318 319 322 324 325 327 327 328 328
303 303 303 303 303 302 303 303 304 304 304 304 304 302 302 302 302 303 306 308 308 307 309 308 308 308 307 307 308 308 307 308 311 314 314 317 319 319 318 319 320 322 324 326 327 327 328
302 303 303 301 302 303 303 304 304 304 304 304 303 303 302 301 301 307 306 307 306 307 309 308 308 308 309 309 310 310 309 309 309 310 315 316 318 318 318 318 320 322 324 325 326 327 327
302 303 302 303 303 303 302 303 304 304 304 303 303 303 304 302 304 305 307 306 306 306 310 307 309 309 309 310 311 311 311 311 309 308 312 316 315 318 318 318 319 321 322 324 325 327 328
303 303 303 303 303 303 303 303 303 303 303 303 303 302 303 303 305 307 306 306 306 307 310 307 308 310 309 309 310 311 311 311 309 309 309 312 316 316 318 318 319 320 321 324 324 324 325
302 302 302 302 302 302 302 302 303 303 302 302 302 302 302 306 307 306 306 306 306 311 310 307 308 309 309 308 309 309 311 312 312 310 310 312 314 317 317 318 319 319 320 323 324 324 327
301 301 302 302 302 302 302 301 302 302 302 302 302 303 304 306 307 306 306 306 310 311 307 307 307 307 308 307 306 307 308 310 315 312 310 310 313 316 317 317 319 320 322 325 327 328 329
301 301 301 301 301 301 302 301 301 301 302 302 302 305 306 307 307 306 307 308 311 307 306 305 305 305 305 305 305 305 308 308 309 311 314 310 311 314 317 318 319 320 322 325 328 329 327
300 300 300 301 301 301 301 301 301 301 302 302 304 307 307 307 306 307 309 312 311 307 307 306 307 308 307 307 307 306 306 308 312 314 320 314 311 312 316 317 318 321 323 323 326 327 328
298 299 299 300 300 301 300 301 301 301 301 302 306 306 308 306 307 307 310 308 306 306 306 307 308 308 308 307 307 307 307 312 310 310 313 319 314 313 316 317 318 320 322 323 326 329 327
293 294 297 300 300 300 300 301 301 301 301 304 307 308 307 305 307 309 311 306 305 305 306 308 307 307 308 310 308 308 310 309 311 310 312 315 320 320 317 319 318 320 322 323 324 326 327
292 293 294 299 300 300 300 301 301 301 301 305 307 308 306 306 311 310 309 306 305 305 305 306 308 308 309 309 309 308 311 309 309 311 315 315 320 326 321 320 318 320 322 324 326 328 324
292 292 294 298 301 300 300 301 301 301 301 304 309 308 306 306 311 309 307 306 305 306 305 305 306 307 308 309 311 310 311 309 311 311 313 316 321 325 326 321 318 319 320 324 325 327 326
292 292 293 297 299 300 301 300 301 301 301 304 309 309 308 308 306 307 307 308 306 306 306 306 306 306 309 308 309 312 310 309 309 311 311 313 318 323 327 323 318 320 320 323 326 327 326
291 292 293 296 298 299 300 300 301 301 301 304 309 308 306 309 309 306 306 307 308 308 308 308 307 306 308 307 307 309 309 308 310 311 311 315 318 317 323 325 319 319 320 322 325 325 325
291 291 293 295 298 297 300 300 301 302 302 306 307 307 307 306 306 306 307 309 307 307 308 307 309 307 307 308 308 310 308 310 312 310 314 316 320 316 320 322 323 319 319 320 321 323 323
291 291 292 293 297 298 299 300 301 302 303 307 306 305 306 306 306 306 308 306 307 307 308 307 307 309 309 308 309 309 309 309 309 309 311 316 320 317 322 323 322 324 320 321 320 322 323
291 291 291 292 294 297 298 300 302 302 302 306 306 306 308 308 307 307 307 306 307 307 309 308 308 309 308 309 310 311 310 310 310 310 311 316 316 320 323 323 325 326 325 321 321 322 324
291 291 292 292 292 297 298 299 302 302 302 304 307 306 308 309 307 307 307 308 308 308 308 309 308 309 310 310 313 314 313 311 311 312 313 315 317 320 327 327 328 326 328 325 323 329 327
294 292 293 293 293 295 297 300 301 302 302 304 306 307 306 308 309 307 308 308 308 309 310 309 310 310 310 311 313 312 316 315 319 318 316 315 317 321 324 328 333 328 324 324 328 331 326
304 298 293 294 294 295 295 299 301 302 303 304 306 308 306 308 307 307 309 309 307 308 309 309 310 310 310 313 317 315 315 314 320 320 323 321 322 324 323 330 328 322 323 324 329 330 324
306 305 301 294 295 294 295 296 300 301 303 304 306 307 306 307 307 307 307 308 308 308 309 309 310 311 311 313 312 315 316 315 319 317 319 320 323 323 326 332 332 320 323 328 325 323 323
306 305 305 302 296 297 295 294 297 300 301 303 306 307 306 303 307 305 306 307 308 308 308 307 308 308 310 313 311 313 313 314 316 320 316 321 317 320 321 320 317 317 319 320 320 321 320
Wind_Speed
17 17 17 17 17 18 17 17 17 18 18 18 18 18 20 20 21 22 23 22 22 22 20 19 16 14 13 10 16 19 4 10 11 10 22 26 30 29 33 28 28 32 32 31 31 31 34
17 16 17 16 17 17 18 18 18 18 18 17 18 19 20 22 23 23 22 23 22 21 21 19 16 12 15 22 11 12 14 16 15 15 17 24 28 30 32 33 33 32 33 33 33 34 31
17 17 17 18 18 19 18 18 18 19 19 20 21 21 22 23 23 24 23 24 24 23 23 20 16 14 17 21 19 20 19 20 19 19 18 21 26 26 26 33 31 33 36 35 35 32 32
18 18 18 18 18 19 18 19 19 22 21 21 22 24 25 25 24 24 24 27 27 27 25 20 14 14 15 17 22 24 24 24 23 24 24 22 17 24 28 24 27 32 31 29 34 34 31
18 19 19 20 20 21 21 21 21 20 21 22 23 23 23 23 23 25 28 31 27 20 13 8 9 12 17 4 17 14 20 20 20 25 25 24 19 18 19 23 22 26 28 38 32 31 28
18 18 18 19 20 22 22 23 23 23 23 23 24 25 24 24 24 27 29 26 18 13 4 7 14 9 14 14 7 2 4 12 16 16 19 23 13 18 20 21 27 31 32 30 33 30 28
17 17 17 18 20 22 23 23 24 24 24 25 25 25 24 24 26 28 28 23 3 8 16 13 13 13 21 16 13 18 13 14 14 13 24 25 18 27 45 33 30 30 26 31 32 28 27
18 18 18 19 21 23 24 24 24 25 26 27 27 27 28 28 29 21 12 10 10 9 12 21 23 26 29 25 22 20 23 19 17 20 22 25 33 46 25 31 31 31 31 32 29 27 21
20 20 20 21 24 26 25 25 25 26 26 26 27 26 29 28 26 13 13 11 9 12 10 24 24 21 19 15 19 19 20 21 24 22 25 30 44 25 33 30 31 32 31 29 29 24 20
22 21 22 24 25 27 27 27 26 27 28 28 29 29 27 29 15 18 10 8 11 11 7 20 10 6 9 7 13 12 15 17 24 29 25 27 33 34 32 36 34 31 29 27 23 20 18
20 21 22 23 25 26 27 27 28 28 29 31 33 32 27 17 15 11 12 11 10 5 6 5 8 9 4 8 9 5 8 13 19 23 19 34 29 36 36 40 30 35 25 24 23 21 22
19 20 21 22 24 25 25 27 27 28 30 33 37 28 20 4 8 9 12 10 7 5 8 2 5 4 9 10 13 10 9 13 11 18 28 32 29 27 39 34 30 27 27 24 18 17 19
20 21 22 22 23 25 25 26 27 29 31 34 35 14 7 7 8 12 11 7 5 7 3 5 10 13 12 16 15 17 13 11 14 14 21 29 30 29 30 32 36 29 22 15 16 17 20
21 21 21 23 25 26 26 28 29 30 32 35 24 8 2 8 10 11 8 3 7 13 13 16 16 15 17 18 19 15 12 14 20 20 20 22 26 33 27 33 37 30 29 15 26 11 16
20 21 23 23 24 26 27 28 29 30 31 34 18 2 2 6 9 5 2 5 6 16 17 13 17 16 19 8 10 10 15 16 4 8 6 20 28 27 35 25 26 38 28 32 21 22 11
21 22 22 24 25 25 26 27 30 28 31 26 16 7 2 6 3 6 3 7 10 8 11 15 18 13 14 17 12 11 11 2 8 7 12 16 24 26 27 27 32 35 27 25 21 23 14
23 23 22 23 25 24 25 26 28 27 30 21 11 2 3 6 3 4 5 8 14 14 13 10 19 19 17 11 13 13 4 5 6 13 11 21 11 17 28 32 32 28 25 29 21 17 14
23 23 24 22 24 24 23 25 25 26 30 18 8 4 6 7 3 3 6 15 16 16 14 14 14 16 15 15 15 19 11 4 1 10 11 16 5 10 19 30 31 31 28 32 15 22 17
24 24 24 22 22 23 22 22 23 24 22 18 6 3 5 4 5 7 14 17 12 12 13 14 7 16 16 14 8 8 12 11 11 5 5 8 8 9 12 18 27 33 31 26 28 15 20
25 24 23 22 21 23 22 20 19 21 20 12 5 4 2 2 3 9 14 15 14 12 15 10 18 10 13 17 2 4 7 5 10 7 13 11 10 14 6 14 23 30 36 31 29 16 17
25 25 24 22 21 23 23 19 18 18 17 10 3 5 4 6 8 12 15 14 15 12 9 18 11 7 12 17 17 3 5 15 8 11 5 5 17 21 12 23 25 24 27 25 30 21 18
25 25 25 24 21 24 23 20 15 15 15 5 5 5 8 12 8 12 10 12 15 19 11 12 12 17 15 15 15 17 13 13 6 5 3 9 20 21 15 22 25 30 30 28 24 25 16
24 25 25 25 23 24 24 19 15 12 9 5 4 7 3 10 6 7 10 14 19 19 9 12 14 16 16 15 18 20 17 16 15 15 14 6 8 8 15 20 18 17 30 26 25 25 20
22 24 25 25 25 23 24 18 14 10 6 9 9 7 4 8 11 10 13 13 17 18 18 16 12 13 13 20 21 20 18 17 17 17 10 10 7 5 7 17 16 5 6 25 21 19 13
22 22 23 25 26 24 22 20 13 11 9 8 7 4 3 8 14 12 17 16 15 17 12 12 12 12 16 14 8 8 5 7 12 11 5 9 3 5 4 8 15 8 11 5 17 14 11
22 22 23 24 26 22 21 21 14 11 11 10 10 6 5 6 5 18 14 16 12 13 13 15 18 17 10 8 4 4 3 5 3 1 8 9 10 6 11 8 10 7 7 3 7 9 9
24 24 23 24 24 23 19 21 20 12 12 10 13 8 6 6 12 11 11 9 9 10 8 16 17 17 9 6 2 4 3 9 5 4 3 4 6 12 11 4 4 13 9 7 9 5 7
25 25 25 24 25 24 22 22 21 17 12 11 12 9 7 4 15 17 9 13 10 8 4 13 10 6 7 8 4 3 4 4 4 4 6 3 4 4 6 2 6 16 5 2 8 7 7
25 25 27 26 26 25 24 23 20 18 15 12 18 7 7 5 13 26 25 22 17 12 5 2 4 8 4 4 5 3 3 3 5 1 6 1 4 3 4 3 2 12 12 12 8 9 9
Wind_Direction
20 17 14 12 8 6 4 2 1 357 353 350 345 339 337 337 333 330 327 325 323 323 321 319 313 314 327 243 246 292 278 284 290 256 228 224 223 226 234 234 243 239 244 253 260 266 267
19 18 17 14 10 6 4 4 360 354 349 344 340 341 338 335 330 325 322 319 317 314 309 305 308 302 273 267 266 272 282 271 260 263 239 232 236 234 242 241 241 246 253 255 258 264 264
23 17 13 10 8 5 3 0 355 351 349 348 343 338 334 331 327 325 319 313 310 307 301 297 290 276 269 260 277 282 274 270 267 264 264 251 242 245 245 250 249 258 259 261 256 256 261
18 15 11 9 6 3 3 1 358 356 353 347 343 338 333 328 325 320 316 312 307 302 295 288 268 256 259 264 271 267 261 263 254 246 247 266 271 246 245 261 253 251 254 259 253 253 249
20 14 12 10 7 5 3 358 354 350 344 341 337 331 329 325 323 321 319 315 306 302 280 262 219 220 262 230 235 261 251 258 263 253 238 240 257 251 237 239 251 244 243 241 254 247 251
22 13 10 7 3 1 359 355 352 348 349 344 338 337 335 331 326 322 317 310 299 284 222 214 241 227 249 259 269 280 277 272 264 246 239 218 226 235 231 222 227 229 237 246 257 260 250
13 7 6 3 0 358 358 356 353 352 348 343 340 338 337 331 326 324 323 314 216 214 218 258 291 226 295 278 263 260 253 274 248 236 225 212 214 220 220 219 237 243 248 249 250 253 242
9 7 4 2 2 2 359 359 355 354 350 346 343 340 339 333 329 323 298 325 342 307 295 281 272 262 260 273 273 261 256 247 239 238 221 220 217 223 225 230 229 243 249 251 262 268 274
7 3 1 7 7 4 359 358 356 355 350 346 343 340 335 330 329 298 321 314 319 310 276 281 264 261 249 236 252 247 238 226 238 242 230 222 229 222 227 232 234 231 236 247 254 266 273
6 2 5 6 2 359 358 356 353 351 351 348 344 336 331 329 302 332 306 346 309 326 281 266 193 207 177 226 250 227 239 247 232 236 241 237 238 235 225 230 230 237 231 244 259 270 261
0 357 358 358 355 352 352 351 350 349 348 346 343 336 321 314 303 312 341 320 326 293 283 102 120 116 251 221 318 159 235 214 245 243 223 241 228 230 237 226 225 241 237 240 238 250 263
353 352 352 352 346 346 348 347 347 345 344 344 343 336 324 325 232 309 318 309 278 240 246 99 160 355 243 240 248 260 212 209 262 242 253 244 248 238 234 241 227 236 235 242 245 253 248
351 349 350 346 342 345 346 344 344 344 343 343 345 349 352 336 338 324 310 295 246 250 8 44 2 305 272 287 280 266 255 253 244 213 234 243 247 247 241 224 237 220 218 224 228 229 244
350 350 349 345 345 345 346 345 345 344 342 344 345 335 357 342 322 318 321 262 251 344 19 342 335 313 294 277 263 263 253 258 250 247 269 227 230 233 233 229 215 217 208 211 218 217 236
355 353 350 349 347 347 347 347 345 343 342 345 340 281 208 347 337 329 248 255 325 358 349 332 317 296 273 310 323 282 255 271 299 357 286 250 240 228 227 232 228 213 210 217 248 217 251
356 354 353 349 347 348 350 348 345 345 342 347 325 298 246 347 322 274 281 303 336 359 325 313 305 293 317 321 295 271 285 179 313 297 260 278 260 230 222 223 237 227 205 210 225 239 220
2 360 356 351 343 348 348 349 350 347 345 348 284 288 105 333 267 277 302 328 336 336 324 322 309 309 311 334 299 298 235 218 211 293 267 277 303 247 233 213 216 208 210 211 218 227 229
359 359 357 353 345 345 350 351 351 347 349 352 290 293 38 323 282 285 304 331 301 299 316 314 342 306 310 307 290 287 217 335 143 321 299 272 258 267 235 212 219 212 208 201 214 208 236
358 358 357 355 350 347 351 353 350 344 354 337 299 277 141 328 350 326 312 319 333 324 310 314 288 307 310 317 309 339 360 353 337 355 305 4 237 262 206 224 202 211 212 199 221 222 206
358 357 355 355 352 345 346 348 349 344 347 340 293 308 69 17 357 320 321 313 328 341 321 316 306 333 311 302 127 259 347 348 291 275 271 280 263 254 235 226 196 210 200 204 201 213 191
357 356 353 351 351 350 342 348 347 345 344 316 292 27 14 304 328 315 300 293 315 331 326 303 295 293 279 314 312 311 263 276 280 245 244 262 240 238 256 284 211 209 205 196 192 208 221
355 354 353 349 349 351 348 350 345 346 343 271 337 350 335 296 292 309 329 315 332 330 333 313 328 320 316 306 311 308 318 301 279 255 287 282 256 238 250 289 286 199 213 201 195 206 212
353 352 351 350 343 346 350 351 342 343 354 323 341 292 339 290 299 314 311 325 309 317 311 286 305 317 311 311 317 305 294 283 280 280 300 283 300 246 245 249 238 221 198 194 198 201 210
350 351 350 348 345 340 346 348 340 326 324 296 313 310 292 304 319 304 293 306 316 306 297 305 311 306 303 312 306 285 257 248 257 259 246 277 319 263 245 247 209 51 307 187 195 197 206
344 346 347 347 346 340 339 345 337 318 307 294 286 271 285 291 316 300 329 321 313 314 310 316 325 319 308 309 305 280 258 260 247 250 204 261 244 264 213 235 108 133 24 87 176 73 31
341 340 343 343 345 341 340 338 334 310 303 293 282 245 265 302 314 328 322 315 316 324 320 330 328 331 301 290 302 326 307 292 103 290 271 229 211 256 235 202 154 82 15 47 100 115 42
341 337 337 340 341 341 336 340 333 312 294 284 285 251 257 281 277 311 307 311 314 318 297 305 341 319 310 303 319 333 315 326 357 345 343 268 210 226 226 214 99 348 350 156 219 84 45
335 337 336 334 338 337 330 327 334 327 293 283 283 261 240 270 291 289 294 285 278 264 269 307 322 15 320 2 342 335 328 330 319 1 330 340 306 177 287 183 74 352 67 37 85 88 47
329 332 334 334 333 336 331 326 324 324 307 280 273 246 208 225 281 300 286 281 285 308 309 235 285 319 324 319 2 319 321 327 318 27 334 55 1 354 23 64 60 64 74 60 55 53 38